| time (UTC) | temp F | wind direction | speed knots | gust knots | rain 1hr in | rain 24hr in | rain mn in | humidity % | barometer mb |
| 20260506123747 | 56 | 1 | 8.7 | 16.5 | 0.00 | 0.00 | 0.00 | 55 | 1009.5 |
| 20260506122746 | 56 | 3 | 7.8 | 15.6 | 0.00 | 0.00 | 0.00 | 54 | 1009.6 |
| 20260506121745 | 56 | 3 | 9.6 | 15.6 | 0.00 | 0.00 | 0.00 | 55 | 1009.5 |
| 20260506120744 | 57 | 4 | 9.6 | 18.2 | 0.00 | 0.00 | 0.00 | 54 | 1009.4 |
| 20260506115743 | 58 | 8 | 9.6 | 18.2 | 0.00 | 0.00 | 0.00 | 56 | 1009.6 |
| 20260506114743 | 57 | 8 | 9.6 | 18.2 | 0.00 | 0.00 | 0.00 | 58 | 1009.6 |
| 20260506113743 | 59 | 10 | 9.6 | 18.2 | 0.00 | 0.00 | 0.00 | 58 | 1009.6 |
| 20260506112742 | 55 | 12 | 9.6 | 17.4 | 0.00 | 0.00 | 0.00 | 66 | 1009.6 |
| 20260506111742 | 53 | 12 | 9.6 | 17.4 | 0.00 | 0.00 | 0.00 | 69 | 1009.7 |
| 20260506110740 | 53 | 14 | 8.7 | 17.4 | 0.00 | 0.00 | 0.00 | 74 | 1009.7 |
| 20260506105740 | 54 | 6 | 9.6 | 18.2 | 0.00 | 0.00 | 0.00 | 74 | 1009.8 |
| 20260506104739 | 54 | 6 | 9.6 | 18.2 | 0.00 | 0.00 | 0.00 | 70 | 1009.8 |
| 20260506103739 | 53 | 9 | 9.6 | 17.4 | 0.00 | 0.00 | 0.00 | 67 | 1009.7 |
| 20260506102738 | 53 | 13 | 8.7 | 17.4 | 0.00 | 0.00 | 0.00 | 67 | 1009.7 |
| 20260506101737 | 53 | 13 | 8.7 | 17.4 | 0.00 | 0.00 | 0.00 | 64 | 1009.7 |
| 20260506100737 | 55 | 16 | 8.7 | 17.4 | 0.00 | 0.00 | 0.00 | 60 | 1009.5 |
| 20260506095736 | 56 | 11 | 8.7 | 16.5 | 0.00 | 0.00 | 0.00 | 61 | 1009.6 |
| 20260506094735 | 56 | 11 | 8.7 | 16.5 | 0.00 | 0.00 | 0.00 | 61 | 1009.5 |
| 20260506093734 | 53 | 354 | 8.7 | 17.4 | 0.00 | 0.00 | 0.00 | 66 | 1009.6 |
| 20260506092733 | 51 | 354 | 8.7 | 16.5 | 0.00 | 0.00 | 0.00 | 68 | 1009.7 |
| 20260506091732 | 53 | 354 | 8.7 | 16.5 | 0.00 | 0.00 | 0.00 | 63 | 1009.4 |
| 20260506090731 | 55 | 354 | 8.7 | 16.5 | 0.00 | 0.00 | 0.00 | 63 | 1009.4 |
| 20260506085731 | 55 | 346 | 8.7 | 16.5 | 0.00 | 0.00 | 0.00 | 62 | 1009.4 |
| 20260506084729 | 53 | 346 | 8.7 | 16.5 | 0.00 | 0.00 | 0.00 | 66 | 1009.4 |
| 20260506083729 | 52 | 346 | 7.8 | 15.6 | 0.00 | 0.00 | 0.00 | 68 | 1009.3 |
| 20260506082728 | 52 | 346 | 8.7 | 15.6 | 0.00 | 0.00 | 0.00 | 68 | 1009.4 |
| 20260506081728 | 52 | 354 | 8.7 | 15.6 | 0.00 | 0.00 | 0.00 | 67 | 1009.4 |
| 20260506080727 | 51 | 354 | 8.7 | 15.6 | 0.00 | 0.00 | 0.00 | 68 | 1009.4 |
| 20260506072725 | 52 | 348 | 7.8 | 15.6 | 0.00 | 0.00 | 0.00 | 67 | 1009.4 |
| 20260506071723 | 51 | 348 | 7.8 | 15.6 | 0.00 | 0.00 | 0.00 | 70 | 1009.3 |
| 20260506070722 | 50 | 348 | 7.8 | 15.6 | 0.00 | 0.00 | 0.00 | 71 | 1009.3 |
| 20260506061719 | 46 | 330 | 7.8 | 15.6 | 0.00 | 0.00 | 0.00 | 79 | 1009.1 |
| 20260506060717 | 45 | 330 | 7.8 | 14.8 | 0.00 | 0.00 | 0.00 | 81 | 1009.2 |
| 20260506050712 | 42 | 326 | 5.2 | 9.6 | 0.00 | 0.00 | 0.00 | 88 | 1009.1 |
| 20260506044711 | 42 | 326 | 5.2 | 9.6 | 0.00 | 0.00 | 0.00 | 87 | 1009.1 |
| 20260506043710 | 42 | 326 | 5.2 | 9.6 | 0.00 | 0.00 | 0.00 | 87 | 1009.1 |
| 20260506042709 | 42 | 326 | 5.2 | 9.6 | 0.00 | 0.00 | 0.00 | 87 | 1009.2 |
| 20260506041708 | 42 | 326 | 5.2 | 9.6 | 0.00 | 0.00 | 0.00 | 86 | 1009.1 |
| 20260506040708 | 43 | 326 | 5.2 | 10.4 | 0.00 | 0.00 | 0.00 | 85 | 1009.1 |
| 20260506035707 | 43 | 340 | 5.2 | 10.4 | 0.00 | 0.00 | 0.00 | 84 | 1009.1 |
| 20260506034706 | 43 | 340 | 5.2 | 10.4 | 0.00 | 0.00 | 0.00 | 84 | 1009.2 |
| 20260506033706 | 43 | 340 | 6.1 | 11.3 | 0.00 | 0.00 | 0.00 | 84 | 1009.2 |
| 20260506032704 | 44 | 340 | 6.1 | 12.2 | 0.00 | 0.00 | 0.00 | 83 | 1009.2 |
| 20260506031703 | 44 | 340 | 6.1 | 12.2 | 0.00 | 0.00 | 0.00 | 83 | 1009.3 |
| 20260506030703 | 44 | 340 | 6.1 | 11.3 | 0.00 | 0.00 | 0.00 | 83 | 1009.4 |
| 20260506025702 | 45 | 0 | 6.1 | 11.3 | 0.00 | 0.00 | 0.00 | 82 | 1009.6 |
| 20260506024701 | 45 | 340 | 6.1 | 11.3 | 0.00 | 0.00 | 0.00 | 81 | 1009.6 |
| 20260506023700 | 45 | 340 | 6.1 | 11.3 | 0.00 | 0.00 | 0.00 | 80 | 1009.6 |
| 20260506022700 | 46 | 340 | 5.2 | 10.4 | 0.00 | 0.00 | 0.00 | 79 | 1009.5 |
| 20260506021659 | 46 | 340 | 5.2 | 10.4 | 0.00 | 0.00 | 0.00 | 78 | 1009.6 |
| 20260506020659 | 47 | 340 | 5.2 | 10.4 | 0.00 | 0.00 | 0.00 | 77 | 1009.6 |
| 20260506015658 | 47 | 352 | 5.2 | 10.4 | 0.00 | 0.00 | 0.00 | 76 | 1009.7 |
| 20260506014656 | 47 | 352 | 5.2 | 10.4 | 0.00 | 0.00 | 0.00 | 76 | 1009.7 |
| 20260506013655 | 48 | 352 | 5.2 | 10.4 | 0.00 | 0.00 | 0.00 | 76 | 1009.7 |
| 20260506012654 | 48 | 352 | 5.2 | 10.4 | 0.00 | 0.00 | 0.00 | 76 | 1009.7 |
| 20260506011653 | 48 | 352 | 5.2 | 10.4 | 0.00 | 0.00 | 0.00 | 76 | 1009.8 |
| 20260506010653 | 48 | 352 | 5.2 | 9.6 | 0.00 | 0.00 | 0.00 | 77 | 1009.8 |
| 20260506005652 | 48 | 352 | 5.2 | 9.6 | 0.00 | 0.00 | 0.00 | 78 | 1009.9 |
| 20260506004651 | 48 | 0 | 6.1 | 11.3 | 0.00 | 0.00 | 0.00 | 79 | 1009.9 |
| 20260506003650 | 49 | 0 | 6.1 | 11.3 | 0.00 | 0.00 | 0.00 | 79 | 1009.9 |
| 20260506002649 | 48 | 0 | 5.2 | 10.4 | 0.00 | 0.00 | 0.00 | 79 | 1010.1 |
| 20260506001649 | 48 | 0 | 5.2 | 10.4 | 0.00 | 0.00 | 0.00 | 80 | 1010.0 |
| 20260506000648 | 48 | 0 | 5.2 | 10.4 | 0.00 | 0.00 | 0.00 | 80 | 1010.1 |
| 20260505235647 | 49 | 6 | 5.2 | 10.4 | 0.00 | 0.00 | 0.00 | 79 | 1010.1 |
| 20260505234646 | 49 | 6 | 5.2 | 10.4 | 0.00 | 0.00 | 0.00 | 80 | 1010.2 |
| 20260505233645 | 49 | 6 | 5.2 | 10.4 | 0.00 | 0.00 | 0.00 | 80 | 1010.2 |
| 20260505232645 | 49 | 6 | 5.2 | 11.3 | 0.00 | 0.00 | 0.00 | 80 | 1010.2 |
| 20260505231644 | 48 | 6 | 5.2 | 11.3 | 0.00 | 0.00 | 0.00 | 80 | 1010.2 |
| 20260505230642 | 49 | 6 | 6.1 | 11.3 | 0.00 | 0.00 | 0.00 | 80 | 1010.2 |
| 20260505225642 | 49 | 12 | 6.1 | 11.3 | 0.00 | 0.00 | 0.00 | 80 | 1010.3 |
| 20260505224641 | 49 | 12 | 6.1 | 11.3 | 0.00 | 0.00 | 0.00 | 78 | 1010.3 |
| 20260505223640 | 49 | 12 | 6.1 | 11.3 | 0.00 | 0.00 | 0.00 | 78 | 1010.4 |
| 20260505222639 | 49 | 12 | 6.1 | 12.2 | 0.00 | 0.00 | 0.00 | 77 | 1010.4 |
| 20260505221638 | 50 | 12 | 6.1 | 12.2 | 0.00 | 0.00 | 0.00 | 77 | 1010.4 |
| 20260505220637 | 50 | 12 | 6.1 | 12.2 | 0.00 | 0.00 | 0.00 | 76 | 1010.4 |
| 20260505215636 | 50 | 20 | 6.1 | 12.2 | 0.00 | 0.00 | 0.00 | 76 | 1010.3 |
| 20260505214635 | 50 | 20 | 6.1 | 12.2 | 0.00 | 0.00 | 0.00 | 76 | 1010.3 |
| 20260505213635 | 50 | 12 | 5.2 | 11.3 | 0.00 | 0.00 | 0.00 | 75 | 1010.4 |
| 20260505212634 | 50 | 12 | 6.1 | 12.2 | 0.00 | 0.00 | 0.00 | 74 | 1010.3 |
| 20260505211634 | 50 | 16 | 6.1 | 12.2 | 0.00 | 0.00 | 0.00 | 74 | 1010.3 |
| 20260505210633 | 51 | 16 | 6.1 | 11.3 | 0.00 | 0.00 | 0.00 | 73 | 1010.4 |
| 20260505205633 | 51 | 18 | 6.1 | 11.3 | 0.00 | 0.00 | 0.00 | 73 | 1010.3 |
| 20260505204632 | 51 | 18 | 6.1 | 11.3 | 0.00 | 0.00 | 0.00 | 73 | 1010.3 |
| 20260505203631 | 51 | 18 | 5.2 | 11.3 | 0.00 | 0.00 | 0.00 | 72 | 1010.3 |
| 20260505202631 | 52 | 18 | 5.2 | 10.4 | 0.00 | 0.00 | 0.00 | 71 | 1010.2 |
| 20260505201630 | 53 | 18 | 5.2 | 10.4 | 0.00 | 0.00 | 0.00 | 71 | 1010.0 |
| 20260505200629 | 53 | 18 | 5.2 | 9.6 | 0.00 | 0.00 | 0.00 | 71 | 1010.0 |
| 20260505195628 | 53 | 48 | 5.2 | 9.6 | 0.00 | 0.00 | 0.00 | 73 | 1009.9 |
| 20260505194628 | 53 | 48 | 5.2 | 9.6 | 0.00 | 0.00 | 0.00 | 74 | 1009.8 |
| 20260505193627 | 53 | 48 | 5.2 | 9.6 | 0.00 | 0.00 | 0.00 | 75 | 1009.7 |
| 20260505192627 | 54 | 48 | 5.2 | 9.6 | 0.00 | 0.00 | 0.00 | 77 | 1009.5 |
| 20260505191626 | 54 | 48 | 5.2 | 9.6 | 0.00 | 0.00 | 0.00 | 78 | 1009.5 |
| 20260505190625 | 54 | 48 | 5.2 | 9.6 | 0.00 | 0.00 | 0.00 | 79 | 1009.4 |
| 20260505185625 | 53 | 30 | 4.3 | 8.7 | 0.00 | 0.00 | 0.00 | 79 | 1009.3 |
| 20260505184624 | 54 | 30 | 3.5 | 7.0 | 0.00 | 0.00 | 0.00 | 77 | 1009.3 |
| 20260505183624 | 54 | 42 | 4.3 | 7.8 | 0.01 | 0.00 | 0.00 | 74 | 1009.2 |
| 20260505182623 | 54 | 42 | 4.3 | 8.7 | 0.01 | 0.00 | 0.00 | 73 | 1009.2 |
| 20260505181621 | 54 | 56 | 4.3 | 8.7 | 0.00 | 0.00 | 0.00 | 75 | 1009.3 |
| 20260505180621 | 55 | 56 | 5.2 | 9.6 | 0.00 | 0.00 | 0.00 | 74 | 1009.2 |
| 20260505175620 | 56 | 18 | 4.3 | 8.7 | 0.00 | 0.00 | 0.00 | 68 | 1009.1 |
| 20260505174619 | 57 | 18 | 4.3 | 8.7 | 0.00 | 0.00 | 0.00 | 57 | 1008.9 |
| 20260505173619 | 58 | 18 | 4.3 | 7.8 | 0.00 | 0.00 | 0.00 | 56 | 1008.9 |
| 20260505172618 | 58 | 18 | 3.5 | 7.8 | 0.00 | 0.00 | 0.00 | 54 | 1008.8 |
| 20260505171617 | 58 | 18 | 3.5 | 7.8 | 0.00 | 0.00 | 0.00 | 54 | 1008.8 |
| 20260505170616 | 59 | 18 | 3.5 | 7.0 | 0.00 | 0.00 | 0.00 | 53 | 1008.9 |
| 20260505165614 | 59 | 80 | 3.5 | 6.1 | 0.00 | 0.00 | 0.00 | 52 | 1008.9 |
| 20260505164614 | 59 | 80 | 3.5 | 6.1 | 0.00 | 0.00 | 0.00 | 52 | 1008.8 |
| 20260505163613 | 59 | 80 | 2.6 | 5.2 | 0.00 | 0.00 | 0.00 | 52 | 1008.8 |
| 20260505162612 | 59 | 80 | 1.7 | 4.3 | 0.00 | 0.00 | 0.00 | 53 | 1008.8 |
| 20260505161611 | 59 | 80 | 1.7 | 4.3 | 0.00 | 0.00 | 0.00 | 52 | 1008.8 |
| 20260505160610 | 59 | 80 | 1.7 | 4.3 | 0.00 | 0.00 | 0.00 | 53 | 1008.8 |
| 20260505152606 | 61 | 80 | 1.7 | 5.2 | 0.00 | 0.00 | 0.00 | 51 | 1008.8 |
| 20260505151606 | 62 | 80 | 1.7 | 5.2 | 0.00 | 0.00 | 0.00 | 49 | 1008.8 |
| 20260505150605 | 62 | 56 | 5.2 | 9.6 | 0.00 | 0.00 | 0.00 | 49 | 1008.9 |
| 20260505140557 | 63 | 134 | 4.3 | 8.7 | 0.00 | 0.00 | 0.00 | 44 | 1008.9 |
| 20260505124551 | 66 | 40 | 4.3 | 10.4 | 0.00 | 0.00 | 0.00 | 38 | 1008.9 |